Preview of NWS' New Version of Forecast
This preview is not operational and should not be used for support decisions.

Regional Weather Roundup (RWR)

Issued by National Weather Service (NWS)

                            
000
ASUS44 KMEG 250900
RWRTN 
TENNESSEE HOURLY STATE WEATHER ROUNDUP
NATIONAL WEATHER SERVICE MEMPHIS TN
400 AM CDT SUN AUG 25 2019

TNZ002-004-019-021-049-052-054-088>092-251000-
WEST TENNESSEE
  
CITY           SKY/WX    TMP DP  RH WIND       PRES   REMARKS
MEMPHIS INTL   CLOUDY    75  74  96 SE5       29.95F                  
NWS MEMPHIS      N/A     74 N/A N/A MISG        N/A                   
JACKSON        CLOUDY    74  73  97 CALM      29.98S                  
DYERSBURG      FAIR      71  68  90 E6        29.98F                  
$$

TNZ008-025-027-028-033-062-065-066-251000-
NORTH MIDDLE TENNESSEE
  
CITY           SKY/WX    TMP DP  RH WIND       PRES   REMARKS
NASHVILLE      CLOUDY    72  65  78 NE6       30.00S                  
CLARKSVILLE    FAIR      67  60  78 NE3       30.00F                  
SMYRNA         FAIR      72  69  90 E3        30.01S                  
CROSSVILLE     FAIR      67  64  90 SE3       30.08S                  
$$

TNZ061-075-076-078-094-096-097-251000-
SOUTH MIDDLE TENNESSEE
  
CITY           SKY/WX    TMP DP  RH WIND       PRES   REMARKS
$$

TNZ017-018-042-046-047-251000-
NORTHEAST TENNESSEE
  
CITY           SKY/WX    TMP DP  RH WIND       PRES   REMARKS
TRI CITIES     CLOUDY    61  57  87 CALM      30.13F                  
$$

TNZ012-013-036-069-073-074-251000-
CENTRAL EAST TENNESSEE
  
CITY           SKY/WX    TMP DP  RH WIND       PRES   REMARKS
KNOXVILLE      CLOUDY    68  62  81 NE9       30.04F                  
OAK RIDGE      CLOUDY    70  63  78 VRB3      30.07S                  
$$

TNZ083-085-099-251000-
SOUTHEAST TENNESSEE
  
CITY           SKY/WX    TMP DP  RH WIND       PRES   REMARKS
CHATTANOOGA    CLOUDY    73  69  87 SE6       30.05S                  
$$

SKY/WX REPORTED AS FAIR MEANS FEW OR NO CLOUDS BELOW
12 THOUSAND FEET.